Total_Precipitation_Accumulation
0.14 0.16 0.19 0.17 0.17 0.20 0.24 0.35 0.51 0.37 0.09 0.02 0.02 0.03 0.08 0.13 0.13 0.12 0.11 0.13 0.19 0.23 0.27 0.31 0.38 0.55 0.85 1.32 1.88 2.76 3.33 2.97 2.19 1.62 1.42 1.58 1.88 2.25
0.18 0.20 0.21 0.21 0.24 0.26 0.28 0.29 0.37 0.46 0.27 0.03 0.02 0.04 0.09 0.16 0.17 0.13 0.13 0.14 0.16 0.18 0.19 0.21 0.25 0.36 0.56 0.87 1.26 1.80 2.66 3.12 2.87 2.32 1.83 1.77 1.85 2.13
0.18 0.22 0.24 0.26 0.33 0.35 0.38 0.37 0.33 0.37 0.37 0.09 0.02 0.04 0.12 0.20 0.19 0.14 0.14 0.13 0.11 0.13 0.16 0.18 0.20 0.27 0.40 0.60 0.84 1.16 1.76 2.50 2.92 2.91 2.49 2.13 1.97 1.95
0.21 0.25 0.28 0.30 0.36 0.40 0.48 0.49 0.41 0.35 0.40 0.24 0.06 0.04 0.12 0.23 0.26 0.20 0.17 0.15 0.11 0.12 0.15 0.18 0.22 0.27 0.34 0.45 0.61 0.82 1.15 1.70 2.25 2.64 2.69 2.34 2.10 2.05
0.25 0.31 0.35 0.39 0.38 0.41 0.51 0.55 0.49 0.41 0.40 0.36 0.16 0.07 0.10 0.22 0.32 0.30 0.25 0.23 0.18 0.14 0.15 0.17 0.21 0.26 0.30 0.35 0.47 0.61 0.78 0.97 1.39 1.97 2.52 2.58 2.33 2.22
0.19 0.24 0.36 0.49 0.54 0.58 0.59 0.57 0.58 0.58 0.52 0.46 0.30 0.17 0.15 0.22 0.38 0.43 0.37 0.32 0.27 0.22 0.19 0.17 0.20 0.25 0.27 0.28 0.29 0.39 0.57 0.82 1.09 1.50 1.96 2.36 2.43 2.35
0.17 0.19 0.31 0.51 0.67 0.85 0.91 0.79 0.77 0.81 0.74 0.66 0.54 0.39 0.30 0.33 0.42 0.47 0.52 0.44 0.40 0.33 0.24 0.19 0.19 0.19 0.20 0.24 0.28 0.32 0.40 0.55 0.76 1.05 1.44 1.80 2.13 2.30
0.20 0.20 0.27 0.47 0.60 0.68 0.79 0.80 0.84 0.97 1.02 0.92 0.77 0.61 0.44 0.38 0.40 0.50 0.62 0.65 0.56 0.46 0.35 0.27 0.25 0.23 0.20 0.19 0.23 0.27 0.32 0.42 0.57 0.77 1.04 1.35 1.69 2.01
0.19 0.18 0.22 0.34 0.45 0.54 0.57 0.57 0.62 0.75 0.95 1.03 0.96 0.72 0.58 0.47 0.52 0.58 0.60 0.67 0.62 0.64 0.59 0.48 0.35 0.30 0.25 0.27 0.29 0.27 0.31 0.37 0.44 0.58 0.80 1.03 1.31 1.64
0.17 0.15 0.12 0.20 0.33 0.49 0.58 0.54 0.51 0.60 0.82 1.01 1.16 0.99 0.80 0.74 0.82 0.88 0.84 0.74 0.68 0.79 0.79 0.79 0.63 0.45 0.37 0.34 0.34 0.29 0.30 0.33 0.39 0.47 0.62 0.80 1.00 1.30
0.16 0.15 0.10 0.12 0.25 0.39 0.42 0.39 0.35 0.44 0.56 0.75 0.84 0.84 0.77 0.81 0.96 1.17 1.14 0.98 0.85 0.95 0.95 0.89 0.93 0.82 0.73 0.60 0.50 0.41 0.34 0.33 0.37 0.43 0.51 0.64 0.81 1.13
0.13 0.12 0.13 0.16 0.22 0.27 0.28 0.31 0.39 0.41 0.39 0.41 0.43 0.45 0.49 0.58 0.81 1.14 1.31 1.19 1.01 1.10 1.16 1.00 1.07 1.06 1.18 1.06 0.77 0.55 0.43 0.42 0.42 0.44 0.47 0.52 0.65 0.84
0.14 0.14 0.11 0.16 0.19 0.19 0.20 0.25 0.40 0.34 0.27 0.30 0.31 0.31 0.34 0.45 0.63 0.89 1.20 1.38 1.27 1.17 1.22 1.17 1.27 1.08 1.07 1.18 1.03 0.77 0.53 0.45 0.44 0.50 0.53 0.53 0.56 0.59
0.14 0.12 0.09 0.10 0.11 0.13 0.16 0.22 0.24 0.22 0.25 0.25 0.23 0.25 0.31 0.40 0.53 0.70 0.91 1.17 1.30 1.23 1.14 1.15 1.33 1.15 0.88 0.85 0.95 0.94 0.70 0.57 0.48 0.47 0.48 0.63 0.69 0.66
0.23 0.19 0.09 0.08 0.09 0.08 0.11 0.15 0.18 0.21 0.28 0.28 0.24 0.23 0.29 0.40 0.45 0.53 0.62 0.83 1.02 1.08 1.08 1.14 1.29 1.28 1.04 0.81 0.72 0.77 0.79 0.80 0.65 0.56 0.53 0.55 0.56 0.58
0.22 0.15 0.09 0.09 0.08 0.07 0.05 0.07 0.10 0.15 0.21 0.24 0.23 0.21 0.21 0.26 0.35 0.47 0.56 0.65 0.83 0.98 1.08 1.21 1.41 1.51 1.33 0.94 0.74 0.67 0.63 0.81 0.83 0.69 0.61 0.59 0.55 0.47
0.22 0.20 0.15 0.12 0.12 0.10 0.07 0.05 0.05 0.08 0.12 0.16 0.19 0.21 0.21 0.23 0.29 0.39 0.54 0.63 0.76 0.90 1.05 1.30 1.54 1.62 1.60 1.36 1.05 0.80 0.62 0.63 0.73 0.71 0.68 0.69 0.70 0.59
0.22 0.22 0.15 0.11 0.11 0.10 0.08 0.07 0.05 0.05 0.06 0.09 0.14 0.18 0.22 0.26 0.29 0.32 0.45 0.60 0.74 0.85 0.94 1.14 1.43 1.60 1.73 1.78 1.44 1.00 0.74 0.69 0.81 0.81 0.72 0.69 0.79 0.75
0.21 0.16 0.11 0.09 0.09 0.08 0.08 0.07 0.05 0.04 0.05 0.07 0.10 0.13 0.17 0.23 0.27 0.30 0.38 0.51 0.64 0.79 0.91 1.02 1.23 1.47 1.62 1.82 1.86 1.37 0.94 0.81 0.91 1.05 0.94 0.73 0.67 0.74
0.14 0.12 0.11 0.09 0.09 0.08 0.08 0.07 0.06 0.05 0.05 0.05 0.06 0.09 0.13 0.18 0.23 0.28 0.35 0.47 0.58 0.70 0.83 0.95 1.15 1.36 1.45 1.45 1.54 1.60 1.42 1.06 0.93 1.09 1.13 0.97 0.85 0.93
0.10 0.10 0.10 0.10 0.09 0.08 0.07 0.07 0.06 0.05 0.04 0.04 0.05 0.06 0.08 0.13 0.19 0.24 0.31 0.39 0.49 0.60 0.71 0.83 1.03 1.20 1.37 1.35 1.26 1.32 1.52 1.54 1.15 1.01 1.08 1.09 1.06 1.09
0.10 0.10 0.09 0.09 0.10 0.09 0.08 0.07 0.06 0.05 0.04 0.04 0.03 0.04 0.05 0.09 0.15 0.20 0.27 0.34 0.42 0.52 0.65 0.77 0.91 1.08 1.29 1.40 1.37 1.27 1.39 1.61 1.60 1.36 1.17 1.01 0.88 0.84
0.12 0.11 0.10 0.10 0.10 0.09 0.09 0.07 0.06 0.04 0.03 0.03 0.03 0.03 0.04 0.07 0.10 0.16 0.23 0.30 0.37 0.44 0.55 0.72 0.87 1.01 1.23 1.40 1.41 1.30 1.27 1.40 1.45 1.41 1.49 1.30 0.90 0.62